Track SAUDISAT 1C now! 10-day predictions SAUDISAT 1C is classified as:
1 27607U 02058C 25172.70203603 .00001007 00000-0 14281-3 0 9992 2 27607 64.5513 163.1162 0057751 331.3735 28.4203 14.81653566211028